Temp
5 5 5 6 6 5 6 6 7 7 8 6 5 8 9 11 10 10 10 11 10 11 10 11 11 11 9 10 9 9 10 9 8 9 10 11 11 12 11 10 11 10 11 13
5 5 6 6 5 5 5 6 6 7 9 7 7 9 10 10 10 10 10 10 11 11 11 11 11 11 11 9 9 9 10 9 9 9 10 10 10 11 12 10 10 10 10 13
5 5 5 5 5 5 6 6 7 6 6 6 9 9 9 9 10 10 10 10 11 11 11 11 11 11 12 10 10 11 11 9 9 10 12 13 10 10 9 9 10 12 11 13
4 4 5 5 5 5 6 6 6 7 7 7 10 10 11 10 9 10 10 9 11 11 11 10 10 11 11 10 11 11 10 10 10 11 11 11 10 10 10 10 10 10 13 12
5 4 5 5 5 5 6 7 6 8 8 8 10 10 10 11 9 10 9 10 10 11 10 11 10 11 11 11 11 11 10 10 10 11 12 12 11 11 10 11 11 10 11 11
5 4 5 5 5 5 6 6 7 7 8 8 9 9 9 10 10 10 10 10 10 11 11 11 11 11 11 11 11 11 11 11 11 11 13 13 14 12 11 11 11 11 11 12
4 4 5 5 5 5 5 5 6 7 8 9 9 10 10 10 10 10 10 10 11 12 11 12 11 11 10 11 11 11 11 11 11 12 12 14 15 13 12 11 12 12 12 13
5 4 4 4 5 5 5 5 6 8 9 9 10 10 10 11 11 11 11 11 11 11 10 10 11 11 10 10 11 10 11 11 12 13 13 14 16 13 12 12 13 12 13 13
4 4 4 4 5 5 5 5 5 7 9 9 10 9 9 9 10 10 11 11 10 10 10 10 11 9 11 11 11 9 10 11 12 12 13 13 15 13 12 12 14 13 12 13
4 4 4 4 5 5 4 5 6 7 9 9 10 9 9 11 10 10 10 10 10 10 10 11 11 10 12 11 14 12 11 11 11 12 13 12 14 12 12 14 15 12 12 12
4 4 4 4 4 5 4 5 7 7 8 9 10 11 9 9 10 10 9 9 9 10 10 11 10 10 10 11 11 14 13 13 13 13 12 12 14 13 14 14 12 12 12 11
3 4 4 4 4 5 4 5 6 6 8 9 9 10 11 11 11 10 9 10 10 10 10 9 10 9 8 10 11 10 12 12 11 12 12 13 12 13 13 11 10 11 9 9
3 3 4 4 4 4 4 4 5 7 8 9 9 9 10 10 11 12 10 9 10 9 9 10 11 11 8 9 10 11 11 10 11 12 14 11 12 12 10 8 8 7 7 6
3 4 4 4 4 4 4 4 5 5 8 8 9 9 9 9 10 10 9 9 9 9 9 10 11 11 10 10 10 10 10 10 11 12 12 12 11 11 8 7 7 6 6 5
3 3 3 3 3 4 4 5 6 6 8 10 10 9 8 8 8 8 8 9 9 9 10 11 11 10 9 8 8 9 9 11 12 13 14 13 12 9 8 7 6 6 6 5
3 3 3 3 4 4 4 7 7 7 7 8 9 9 8 7 8 8 8 8 9 9 10 11 11 9 10 11 10 12 10 10 11 13 11 9 8 8 8 7 6 6 5 4
3 3 3 4 4 4 4 6 6 7 6 8 9 9 9 8 8 8 8 8 8 9 10 11 11 10 10 10 11 13 11 11 10 11 9 10 9 9 7 6 6 5 4 4
3 3 3 4 4 4 4 8 8 7 7 8 8 8 9 9 9 9 8 9 9 9 10 10 10 9 10 11 11 11 11 9 9 9 9 10 7 6 5 5 5 5 4 3
3 4 4 4 4 5 6 7 8 8 8 8 8 8 9 8 9 9 8 9 10 8 10 10 9 10 11 12 11 12 9 9 8 6 6 7 7 6 5 5 5 4 3 3
4 5 5 6 5 5 7 7 8 7 7 7 9 8 9 8 9 9 9 8 9 9 9 7 9 10 10 9 9 8 8 7 6 6 5 5 5 5 5 6 6 5 3 2
3 3 3 3 5 7 7 7 7 7 7 8 8 7 8 7 9 9 7 7 7 9 8 9 9 9 8 5 6 6 6 5 7 8 8 7 7 6 4 3 3 3 3 2
2 2 2 2 5 6 7 7 6 7 9 7 8 8 8 7 7 8 7 9 7 9 5 8 9 7 5 5 5 4 5 6 6 6 5 5 5 5 4 3 3 2 1 1
3 3 2 4 4 6 8 8 8 8 6 5 6 7 7 7 7 7 7 9 9 5 7 8 6 5 4 4 4 4 4 4 3 3 3 3 3 4 3 2 2 2 1 0
3 4 5 5 7 6 6 4 3 3 4 5 6 6 6 6 7 7 8 6 6 7 7 6 3 3 4 3 3 3 3 3 2 2 2 2 2 2 2 2 1 1 -0 -1
3 3 4 5 4 3 3 2 3 3 4 5 5 5 7 6 7 6 6 7 7 6 6 3 -1 -2 -2 2 2 2 1 1 1 1 1 1 1 1 1 1 1 0 -1 -2
2 3 3 3 4 4 4 3 4 2 4 3 4 6 7 7 6 6 6 4 5 6 2 -2 -6 -0 1 1 1 1 0 0 0 1 1 1 1 0 -1 -1 -1 -1 -2 -2
3 3 1 1 1 2 3 3 4 4 4 6 6 8 8 3 4 4 3 5 6 2 -2 -1 -3 -3 0 -1 -0 -0 -0 -0 0 1 1 -0 -1 -1 -1 -3 -3 -2 -3 -3
Height
744 738 732 726 718 708 700 696 692 687 689 703 712 703 703 702 708 706 712 716 721 726 732 735 736 738 746 742 748 753 753 758 763 749 734 734 732 728 735 732 718 715 709 679
742 737 730 725 719 711 704 698 692 686 690 701 705 704 705 704 706 709 714 719 718 722 729 734 734 735 734 742 745 750 750 754 751 746 733 731 733 717 712 721 722 709 711 671
741 737 731 724 718 709 704 699 691 694 698 700 699 708 709 708 707 711 714 719 717 724 729 730 734 733 730 736 738 738 739 747 749 738 711 707 721 712 716 717 708 691 693 672
740 736 729 724 719 709 699 698 697 695 697 700 695 702 699 707 712 715 715 723 719 722 728 732 732 730 734 734 731 734 742 736 734 723 714 707 703 696 694 699 690 695 664 678
739 735 730 724 717 710 703 699 701 698 695 700 697 700 700 701 712 714 719 719 720 721 727 724 729 729 728 724 728 731 736 728 725 712 698 693 690 681 680 674 681 690 682 675
738 734 731 726 720 715 709 705 701 702 695 700 701 701 704 704 707 712 711 714 718 720 720 722 722 724 724 723 723 727 727 726 721 703 688 678 668 670 672 673 675 676 681 665
737 732 731 728 722 718 715 710 706 703 697 696 697 699 699 704 707 709 712 714 716 716 716 718 720 720 722 721 721 722 721 723 721 703 692 679 660 666 663 667 666 667 665 662
737 732 728 726 723 719 715 710 706 698 690 696 697 697 701 702 703 707 708 710 710 714 718 719 715 715 719 713 711 715 718 720 711 700 691 676 658 664 665 668 655 656 656 659
735 732 728 724 721 716 710 702 701 700 692 694 693 700 700 703 705 707 706 707 710 713 715 715 709 729 711 708 706 712 716 716 713 708 695 685 666 662 664 668 656 654 657 657
732 729 726 723 718 713 708 701 699 699 693 690 689 695 698 696 701 703 706 707 710 711 710 709 710 715 703 707 688 696 705 708 707 701 696 685 665 666 664 666 665 661 660 658
731 727 724 720 716 711 708 699 696 696 693 690 687 688 693 697 699 702 707 708 707 706 708 706 708 711 708 702 697 683 689 692 692 693 694 691 664 666 666 664 663 659 656 663
729 726 723 719 716 712 707 700 695 692 692 690 688 688 689 690 691 697 703 703 703 702 703 708 703 710 711 704 698 695 689 686 692 688 681 665 664 664 662 665 665 662 663 661
727 725 722 718 716 712 709 702 697 693 693 691 690 689 689 689 690 690 697 701 699 700 699 697 695 696 704 702 698 689 685 686 685 681 666 668 661 662 667 669 667 667 665 666
724 721 717 715 712 710 707 703 698 699 696 695 691 688 689 688 688 689 691 694 696 697 697 693 691 691 691 693 689 688 684 686 681 677 666 665 663 663 669 672 671 670 670 671
720 718 716 713 709 704 700 696 693 694 698 690 688 687 687 686 686 688 689 691 692 694 692 688 687 684 690 695 694 690 681 674 674 669 661 661 663 668 671 673 675 675 674 678
717 713 711 709 707 705 701 694 692 693 693 694 690 688 687 686 686 687 688 689 690 690 684 680 680 682 683 681 682 663 667 665 663 661 665 669 671 671 673 676 678 680 681 686
712 708 705 703 703 703 703 695 692 691 694 693 691 688 686 686 686 687 687 687 687 688 681 680 678 679 679 679 673 658 659 662 663 662 666 669 671 672 676 680 683 684 688 693
705 700 696 696 697 699 696 689 689 692 693 693 693 689 686 685 683 683 685 684 685 683 680 680 677 680 678 669 657 655 659 663 664 664 665 665 670 675 680 685 686 690 694 700
697 692 690 691 693 693 689 689 689 692 696 692 693 690 685 685 682 682 684 683 679 682 679 678 681 672 668 653 655 653 658 660 663 669 671 671 674 680 682 686 691 691 701 706
694 691 691 688 689 690 689 691 692 692 691 691 687 685 685 686 683 684 684 686 682 682 681 684 678 664 655 657 656 658 657 661 665 669 677 679 682 682 684 687 691 693 702 708
696 696 696 692 688 687 689 691 693 693 693 687 685 686 684 685 682 681 688 689 691 682 685 681 674 667 661 663 660 660 659 661 663 663 662 667 670 677 684 692 697 700 705 711
703 702 699 696 691 690 691 692 695 691 684 685 683 683 684 685 685 686 688 685 691 683 695 684 674 664 664 664 663 663 661 662 664 664 665 668 674 681 686 692 698 703 709 716
701 701 702 698 697 691 684 684 686 686 688 688 686 686 685 686 686 690 689 683 683 698 690 680 672 666 665 665 665 665 664 665 667 669 670 673 678 684 687 695 702 707 712 719
700 699 698 696 688 689 687 695 700 697 693 688 686 688 688 688 690 692 686 695 696 693 692 685 676 669 666 667 666 665 666 667 669 671 674 677 681 687 693 698 702 707 715 722
700 701 697 695 699 697 698 698 697 694 691 689 688 690 688 693 692 696 697 695 691 692 680 678 679 677 675 669 668 669 670 671 673 674 677 681 685 689 696 702 706 710 717 722
701 701 703 700 698 696 696 695 693 692 689 690 689 688 690 688 692 696 697 707 693 673 680 680 684 675 672 671 671 672 672 673 675 678 681 685 690 694 700 707 712 716 720 725
700 701 704 704 705 702 700 698 693 691 690 685 686 681 681 700 701 699 697 686 670 674 681 678 678 677 672 673 673 674 676 678 679 681 685 689 694 699 704 712 719 721 727 731
Wind_Speed
28 27 28 29 34 39 17 5 2 7 25 4 2 3 4 3 3 6 5 4 4 5 7 5 6 7 4 6 8 9 8 3 5 12 9 14 15 12 18 9 8 6 10 17
26 26 28 28 33 34 9 5 2 14 7 3 3 4 1 2 3 3 3 3 3 2 4 4 5 5 4 8 8 9 8 4 4 9 2 2 8 15 22 12 8 10 3 9
25 24 26 28 33 36 19 2 2 4 3 3 7 3 4 4 3 4 4 4 4 5 3 2 2 4 3 10 8 9 10 5 7 10 14 7 12 14 15 17 8 13 16 21
24 23 25 27 31 36 12 1 1 2 2 1 9 5 3 7 4 2 3 3 3 5 3 3 5 7 5 6 11 8 7 6 9 20 24 25 26 27 22 20 26 10 16 18
23 22 26 26 30 34 7 3 2 1 5 6 12 4 5 7 4 6 4 4 7 5 4 5 3 4 6 4 3 8 6 4 5 18 22 21 21 18 16 16 21 18 21 24
22 22 24 23 27 28 5 6 3 2 7 6 4 4 6 10 7 3 5 7 4 7 12 10 11 8 6 3 1 9 4 3 3 7 13 23 4 5 7 4 7 15 14 15
21 22 21 20 23 26 13 8 5 1 2 4 7 7 4 8 9 5 3 5 5 1 4 2 3 7 10 10 13 9 6 5 3 7 13 4 2 2 6 10 9 15 11 10
20 21 21 21 21 24 20 15 4 2 2 5 7 8 5 4 4 3 5 5 4 7 2 2 2 2 2 9 18 17 15 7 4 3 4 8 3 4 2 2 6 16 14 13
20 20 21 22 21 25 25 23 8 3 2 7 8 6 5 4 4 2 3 3 5 3 3 3 3 4 3 3 1 6 10 13 6 2 4 4 3 6 1 3 4 4 9 9
20 20 21 22 22 25 29 12 6 5 2 1 4 4 6 4 3 2 2 3 3 7 4 4 3 3 3 3 4 4 4 4 11 8 3 7 4 7 1 4 5 4 6 5
18 20 22 23 22 24 25 18 8 5 1 2 2 2 4 3 3 3 3 1 2 3 4 4 4 4 5 1 3 4 5 5 3 3 3 6 3 2 2 2 4 5 3 6
20 20 21 22 22 23 22 7 21 15 1 2 1 2 1 3 7 4 3 1 2 3 3 3 2 3 2 3 3 1 3 5 4 6 5 5 3 5 3 2 4 3 4 1
21 20 20 21 22 23 20 16 20 5 2 2 1 3 2 5 7 11 4 3 4 3 1 2 2 5 4 4 5 3 3 3 2 2 3 6 6 3 3 3 3 4 1 3
21 21 21 22 22 22 21 14 16 9 2 0 3 1 2 3 9 9 7 3 2 2 1 2 2 2 3 3 2 3 4 5 4 5 7 5 5 2 4 4 4 6 8 6
23 21 21 21 22 23 26 20 13 12 2 2 2 1 1 2 4 9 9 6 3 2 2 3 3 2 2 1 0 3 5 6 4 4 2 0 1 3 4 5 5 7 11 11
23 21 22 21 18 18 15 2 1 3 4 1 2 0 1 1 2 3 2 2 2 1 2 2 2 1 3 2 3 4 5 3 4 2 3 3 4 5 3 6 6 9 12 11
24 24 23 19 16 14 5 5 3 7 9 1 2 2 1 4 2 1 2 2 1 1 2 2 1 1 3 2 4 4 5 5 5 3 7 3 3 3 7 9 10 13 14 14
27 27 21 16 11 10 9 10 6 6 3 1 1 2 2 4 2 2 3 2 2 3 1 1 1 0 2 4 7 5 4 3 2 4 2 1 10 9 10 8 11 12 13 11
29 12 3 4 4 3 3 4 6 8 2 1 1 1 1 1 1 0 1 1 2 1 2 1 1 2 5 6 3 3 6 6 6 5 6 7 10 9 10 10 8 15 10 10
13 5 3 1 2 8 4 4 2 2 1 1 2 1 2 2 0 1 1 1 1 1 0 2 2 4 5 1 2 2 3 7 10 7 5 6 6 10 12 9 8 13 11 11
7 3 2 10 8 0 1 1 2 1 2 2 3 4 2 1 2 1 0 1 1 1 1 2 2 3 3 5 2 3 2 7 3 1 2 7 11 13 13 11 9 12 14 13
8 8 6 6 3 2 2 2 0 2 3 1 2 2 1 0 1 1 1 1 1 3 2 1 3 3 2 3 3 4 2 6 3 2 7 10 13 11 12 13 12 14 21 22
2 1 2 1 0 2 4 5 2 2 1 1 0 1 0 0 2 2 1 1 2 1 1 3 4 2 2 2 1 3 4 5 6 7 7 12 12 18 19 14 19 23 22 21
1 1 1 1 1 2 1 1 1 1 2 2 1 2 1 1 2 1 0 1 1 1 2 5 3 2 2 2 0 4 5 6 7 8 10 13 14 13 19 21 23 25 21 21
0 1 1 2 2 1 1 1 1 2 1 1 1 2 2 2 2 2 1 1 4 5 4 3 3 3 2 2 1 4 5 6 6 7 9 11 14 14 16 19 22 25 25 25
1 0 2 1 0 1 2 2 2 1 1 0 1 2 2 3 3 3 5 4 5 4 3 2 2 2 1 1 2 3 5 6 7 7 12 15 15 14 18 21 21 22 25 26
1 1 0 1 2 2 2 2 2 3 1 2 2 4 7 2 2 3 4 5 3 2 2 2 2 3 2 2 4 5 6 6 7 12 15 17 22 25 24 14 17 25 25 26
Wind_Direction
335 338 336 336 335 339 347 331 262 277 162 93 124 105 119 125 124 66 92 95 102 130 143 155 177 212 233 162 141 170 197 200 246 234 216 210 215 227 217 231 229 229 252 263
338 339 336 338 337 341 337 309 269 160 145 127 127 120 315 98 111 104 104 99 78 101 139 141 188 184 222 157 165 166 167 206 305 311 14 126 229 238 235 238 255 227 226 263
343 340 338 340 339 338 336 277 325 38 44 349 137 150 173 105 46 69 82 110 91 100 139 203 157 218 229 180 188 182 162 198 198 249 262 291 265 250 232 217 240 246 234 261
343 343 342 343 342 344 338 131 55 8 155 336 148 173 158 118 113 100 145 70 133 147 174 183 218 219 264 189 204 177 179 254 239 259 267 270 266 272 274 215 229 222 261 239
344 344 347 344 346 353 344 0 0 253 157 154 155 153 180 134 147 143 185 134 186 188 195 217 186 212 208 199 129 164 207 276 281 280 269 269 280 278 267 224 226 232 255 272
344 342 349 347 345 354 342 332 295 277 161 151 143 176 162 191 133 217 157 182 164 195 222 226 233 245 279 286 159 191 218 252 286 272 328 312 298 304 292 197 204 219 232 246
344 342 349 348 342 349 352 306 279 294 180 159 188 165 151 162 190 131 175 145 162 208 81 206 227 235 235 242 254 225 251 241 241 294 311 305 292 8 273 232 236 217 244 245
344 342 347 346 340 347 341 312 284 259 142 182 178 176 168 155 167 216 194 189 178 123 69 275 246 218 248 237 234 225 217 237 283 281 296 282 328 345 355 236 293 222 234 247
342 343 346 342 339 346 341 323 236 280 333 191 173 185 175 157 171 135 209 88 136 140 177 200 219 206 240 279 214 193 197 218 231 339 291 288 284 319 300 159 2 320 218 254
344 346 344 345 343 347 341 293 253 258 260 265 143 161 168 148 118 93 106 161 189 179 161 198 193 225 215 248 211 163 162 188 222 241 268 281 271 311 126 43 291 9 207 246
345 343 341 345 345 348 346 302 322 250 243 284 28 135 130 104 143 157 143 145 185 188 175 194 191 205 225 239 242 189 175 176 202 185 231 277 107 13 41 234 288 299 293 160
340 339 339 345 347 345 349 310 324 338 239 263 311 261 299 196 173 138 154 191 147 212 198 204 168 205 180 192 255 329 211 181 188 189 219 257 272 218 300 322 260 287 293 352
335 336 334 334 335 342 343 324 319 336 315 296 4 258 247 212 189 170 147 186 207 218 318 202 178 240 138 180 240 200 249 174 223 10 257 248 257 292 83 347 343 334 324 107
330 329 332 330 327 328 333 319 294 300 300 69 289 308 232 234 215 209 205 158 158 147 250 246 213 229 184 223 244 204 203 144 205 259 283 272 269 266 96 75 61 64 58 68
323 324 325 325 325 326 322 306 269 228 294 314 277 237 292 277 211 214 207 189 172 181 225 205 223 151 154 201 30 245 189 191 171 228 286 182 303 102 112 101 86 89 97 80
316 312 315 315 317 324 334 304 116 244 326 306 308 4 230 213 174 172 188 197 207 208 255 235 216 223 184 218 229 248 197 213 195 252 81 74 106 104 80 95 97 92 93 96
319 311 306 302 297 298 253 276 285 7 344 250 303 302 226 174 165 187 195 185 215 235 264 239 302 232 188 237 237 245 213 210 242 188 124 87 234 136 99 104 102 97 87 87
320 312 300 283 271 265 265 277 258 199 253 316 279 267 308 176 210 220 182 199 197 194 275 251 220 168 226 254 241 233 138 120 156 149 340 40 111 112 108 114 116 101 99 105
325 335 12 123 179 189 259 298 167 161 217 256 177 237 257 54 269 267 209 253 216 155 236 221 263 177 226 237 235 242 207 192 172 90 87 107 117 125 125 123 118 113 113 112
337 8 333 134 133 307 127 177 111 5 286 247 239 169 238 164 183 294 326 7 10 259 314 311 228 254 256 336 319 283 248 158 146 118 122 120 128 155 146 146 144 127 126 118
2 21 348 310 345 72 101 103 144 178 268 216 237 203 182 201 170 234 7 166 356 285 292 298 271 269 261 345 314 358 144 147 143 348 191 166 161 153 132 119 118 120 123 122
310 306 307 310 321 38 119 173 111 204 235 231 187 212 176 39 7 107 278 174 110 258 332 296 259 253 297 345 5 6 131 144 81 89 123 121 125 132 125 125 125 118 119 124
288 123 337 318 199 192 190 178 196 234 237 272 149 64 42 101 49 66 33 272 239 72 249 244 237 261 272 266 5 78 96 111 112 99 92 107 111 121 127 122 123 123 121 128
254 165 316 229 202 263 301 331 275 309 297 292 67 83 97 9 53 41 260 24 332 299 266 241 254 257 294 302 247 142 142 132 120 117 120 119 119 114 118 125 131 127 124 127
203 86 204 207 354 285 282 261 277 249 252 282 82 56 87 31 91 32 71 331 255 221 236 237 268 281 288 303 349 138 132 125 116 124 122 121 124 121 117 126 129 129 128 122
96 194 312 337 209 340 349 324 306 245 270 51 77 132 142 205 147 154 215 150 232 256 226 238 282 255 262 212 131 129 119 117 120 121 123 121 123 121 113 110 115 119 123 126
128 159 10 260 233 240 284 324 294 334 316 225 158 185 215 87 102 244 195 210 228 251 294 282 236 234 200 144 121 117 111 110 120 125 123 116 119 120 115 106 106 116 122 123